Aeroporto :
LOGIN :

Iscrizione | Disclaimer

   EN    FR    IT 

 










Sommario :    VFR   VFR Marginale   IFR   IFR Intensivo   IFR Molto Intensivo
Visibilità : 
Base nubi : 
>= 8 km
>= 3000ft
5 / 8 km
1000 / 3000 ft
1500m / 5 km
500 / 1000 ft
800 / 1500m
200 / 500 ft
< 800m
< 200 ft
Simboli :   Temporali  Nebbia  Neve Forte  Precipitazioni Forti  Vento > 20 kt
SIGMETs :   Varie  Temporali  Ghiacco  Turbolenza  Onda orograficha  Ceneri Vulcaniche







- Altitudine del aeroporto : 11 ft
- Codice IATA : MJV


LELC - Murcia San Javier

ULTIMO METAR :
  • 191230Z 06009KT 030V100 9999 FEW020 BKN040TCU 28/21 Q1020 NOSIG

METARs OBSOLETI :
  • 191200Z 06009KT 020V100 9999 FEW020 BKN040TCU 28/21 Q1020 NOSIG
  • 191130Z 06010KT 020V100 9999 FEW020 BKN035TCU 27/21 Q1020 NOSIG
  • 191100Z 07011KT 030V100 9999 FEW020 BKN030TCU 26/21 Q1020 NOSIG
  • 191030Z 07009KT 040V120 9999 FEW020 SCT030TCU 29/20 Q1020 NOSIG
  • 191000Z 08009KT 030V110 9999 SCT025TCU 29/21 Q1020 NOSIG

TAF TAF LELC
Valido dal 19 a 12 ore il 20 a 12 ore UTC


191100Z 1912/2012 05009KT CAVOK TX28/1915Z TN24/2000Z
PROB40
TEMPO 1912/1920 SHRA FEW035TCU
PROB40
TEMPO 1912/1920 06015G25KT
Nessun NOTAM noto per questo aeroporto.



MetMap, La meteo Aeronautica in un colpo d'occhio ! - Copyright ORBIFLY Dicembre 2007 - Disclaimer

ORBIFLY MET'MAP TEAM :

Programmazione e sviluppo : Alexandra Zaïnal
Concezione e sviluppo : Baudouin d'Aumeries
Co-Programmazione e sviluppo : Marc-Olivier Méhu
Supporto tecnico e logistico : Manuel Goepfert
Aiuto per la traduzione : Arnaldo La Scala

Contatto : metmap@orbifly.com




FONTI E CREDITI :

   NOAA